When you browse on this site, cookies collect data to enhance your experience and personalize the content and advertising you see.
Visit our Privacy Policy to learn more. By continuing to use the site, you agree to this use of cookies and data.
  • In Czech Republic
  • List of Countries
  • For 7 days
  • Water Temperature
  • Weather Map
  • Weather Widgets
  • user-avatar
    Login

    Hourly Weather Saint George's

    Today, 21 October, Monday

    Time Temperature Precipitation Wind Pressure Humidity
    00:00 +27°C° 0 mm 4 mps 751 mmHg 80%
    01:00 +27°C° 0 mm 4 mps 751 mmHg 79%
    02:00 +27°C° 0 mm 4 mps 751 mmHg 78%
    03:00 +27°C° 0 mm 4 mps 750 mmHg 78%
    04:00 +27°C° 0 mm 3 mps 750 mmHg 77%
    05:00 +27°C° 0 mm 3 mps 750 mmHg 77%
    06:00 +27°C° 0 mm 3 mps 751 mmHg 76%
    07:00 +28°C° 0 mm 3 mps 751 mmHg 75%
    08:00 +29°C° 0 mm 4 mps 752 mmHg 74%
    09:00 +29°C° 0 mm 3 mps 752 mmHg 72%
    10:00 +30°C° 0 mm 3 mps 752 mmHg 70%
    11:00 +30°C° 0 mm 3 mps 752 mmHg 68%
    12:00 +30°C° 0.1 mm 3 mps 751 mmHg 71%
    13:00 +30°C° 0.1 mm 3 mps 750 mmHg 73%
    14:00 +30°C° 0.1 mm 3 mps 750 mmHg 76%
    15:00 +29°C° 0.1 mm 4 mps 750 mmHg 77%
    16:00 +29°C° 0.1 mm 4 mps 750 mmHg 79%
    17:00 +29°C° 0.1 mm 4 mps 749 mmHg 80%
    18:00 +28°C° 0 mm 4 mps 750 mmHg 81%
    19:00 +28°C° 0 mm 5 mps 750 mmHg 82%
    20:00 +28°C° 0 mm 5 mps 750 mmHg 83%
    21:00 +28°C° 0.1 mm 5 mps 750 mmHg 83%
    22:00 +28°C° 0.1 mm 4 mps 750 mmHg 82%
    23:00 +28°C° 0.1 mm 4 mps 751 mmHg 82%

    Tomorrow, 22 October, Tuesday

    Time Temperature Precipitation Wind Pressure Humidity
    00:00 +28°C° 1 mm 4 mps 750 mmHg 82%
    01:00 +27°C° 1 mm 4 mps 750 mmHg 82%
    02:00 +27°C° 1 mm 4 mps 749 mmHg 82%
    03:00 +27°C° 1.4 mm 4 mps 749 mmHg 81%
    04:00 +27°C° 1.4 mm 5 mps 749 mmHg 80%
    05:00 +28°C° 1.4 mm 5 mps 749 mmHg 79%
    06:00 +28°C° 0.5 mm 5 mps 750 mmHg 78%
    07:00 +28°C° 0.5 mm 5 mps 750 mmHg 77%
    08:00 +29°C° 0.5 mm 5 mps 751 mmHg 76%
    09:00 +29°C° 0.1 mm 5 mps 751 mmHg 75%
    10:00 +30°C° 0.1 mm 5 mps 751 mmHg 73%
    11:00 +30°C° 0.1 mm 5 mps 751 mmHg 71%
    12:00 +30°C° 0.5 mm 5 mps 750 mmHg 70%
    13:00 +30°C° 0.5 mm 5 mps 750 mmHg 69%
    14:00 +30°C° 0.5 mm 4 mps 749 mmHg 68%
    15:00 +30°C° 0.1 mm 4 mps 749 mmHg 70%
    16:00 +30°C° 0.1 mm 5 mps 749 mmHg 72%
    17:00 +29°C° 0.1 mm 5 mps 749 mmHg 74%
    18:00 +29°C° 0 mm 5 mps 749 mmHg 76%
    19:00 +29°C° 0 mm 5 mps 750 mmHg 78%
    20:00 +28°C° 0 mm 5 mps 750 mmHg 80%
    21:00 +28°C° 0.1 mm 5 mps 750 mmHg 80%
    22:00 +28°C° 0.1 mm 5 mps 750 mmHg 80%
    23:00 +28°C° 0.1 mm 5 mps 750 mmHg 80%

    Day after tomorrow, 23 October, Wednesday

    Time Temperature Precipitation Wind Pressure Humidity
    00:00 +28°C° 0 mm 5 mps 750 mmHg 80%
    01:00 +28°C° 0 mm 5 mps 749 mmHg 81%
    02:00 +28°C° 0 mm 5 mps 749 mmHg 81%
    03:00 +28°C° 0 mm 5 mps 749 mmHg 81%
    04:00 +28°C° 0 mm 5 mps 749 mmHg 82%
    05:00 +28°C° 0 mm 5 mps 749 mmHg 83%
    06:00 +28°C° 0.2 mm 5 mps 749 mmHg 83%
    07:00 +28°C° 0.2 mm 5 mps 750 mmHg 82%
    08:00 +29°C° 0.2 mm 6 mps 750 mmHg 82%
    09:00 +29°C° 0.2 mm 6 mps 751 mmHg 80%
    10:00 +30°C° 0.2 mm 6 mps 751 mmHg 77%
    11:00 +30°C° 0.2 mm 6 mps 751 mmHg 74%
    12:00 +30°C° 0 mm 6 mps 750 mmHg 74%
    13:00 +30°C° 0 mm 6 mps 750 mmHg 74%
    14:00 +30°C° 0 mm 5 mps 749 mmHg 74%
    15:00 +30°C° 0 mm 6 mps 749 mmHg 76%
    16:00 +30°C° 0 mm 6 mps 749 mmHg 78%
    17:00 +29°C° 0 mm 6 mps 749 mmHg 79%
    18:00 +29°C° 0 mm 6 mps 749 mmHg 80%
    19:00 +29°C° 0 mm 7 mps 749 mmHg 82%
    20:00 +28°C° 0 mm 7 mps 750 mmHg 83%
    21:00 +29°C° 0 mm 7 mps 750 mmHg 83%
    22:00 +29°C° 0 mm 7 mps 750 mmHg 83%
    23:00 +29°C° 0 mm 7 mps 750 mmHg 83%

    24 October, Thursday

    Time Temperature Precipitation Wind Pressure Humidity
    00:00 +29°C° 0 mm 7 mps 750 mmHg 83%
    01:00 +28°C° 0 mm 6 mps 749 mmHg 84%
    02:00 +28°C° 0 mm 6 mps 749 mmHg 84%
    03:00 +28°C° 0.1 mm 6 mps 749 mmHg 84%
    04:00 +28°C° 0.1 mm 6 mps 749 mmHg 84%
    05:00 +28°C° 0.1 mm 6 mps 749 mmHg 85%
    06:00 +28°C° 0.2 mm 6 mps 749 mmHg 84%
    07:00 +29°C° 0.2 mm 6 mps 750 mmHg 83%
    08:00 +29°C° 0.2 mm 6 mps 750 mmHg 82%
    09:00 +29°C° 0.1 mm 6 mps 751 mmHg 80%
    10:00 +30°C° 0.1 mm 6 mps 751 mmHg 78%
    11:00 +30°C° 0.1 mm 6 mps 751 mmHg 76%
    12:00 +30°C° 0.1 mm 6 mps 750 mmHg 75%
    13:00 +30°C° 0.1 mm 6 mps 750 mmHg 75%
    14:00 +30°C° 0.1 mm 6 mps 749 mmHg 75%
    15:00 +30°C° 0 mm 6 mps 749 mmHg 77%
    16:00 +29°C° 0 mm 6 mps 749 mmHg 80%
    17:00 +29°C° 0 mm 6 mps 749 mmHg 82%
    18:00 +29°C° 0 mm 6 mps 750 mmHg 83%
    19:00 +29°C° 0 mm 6 mps 750 mmHg 84%
    20:00 +28°C° 0 mm 6 mps 750 mmHg 84%
    21:00 +28°C° 0.2 mm 6 mps 750 mmHg 85%
    22:00 +28°C° 0.2 mm 6 mps 751 mmHg 85%
    23:00 +28°C° 0.2 mm 5 mps 751 mmHg 85%

    25 October, Friday

    Time Temperature Precipitation Wind Pressure Humidity
    00:00 +28°C° 0.3 mm 5 mps 751 mmHg 85%
    01:00 +28°C° 0.3 mm 5 mps 750 mmHg 85%
    02:00 +28°C° 0.3 mm 5 mps 750 mmHg 85%
    03:00 +28°C° 0.1 mm 5 mps 750 mmHg 85%
    04:00 +28°C° 0.1 mm 5 mps 750 mmHg 85%
    05:00 +28°C° 0.1 mm 6 mps 750 mmHg 86%
    06:00 +28°C° 0 mm 6 mps 750 mmHg 84%
    07:00 +28°C° 0 mm 6 mps 751 mmHg 82%
    08:00 +29°C° 0 mm 6 mps 751 mmHg 80%
    09:00 +29°C° 0 mm 6 mps 751 mmHg 79%
    10:00 +30°C° 0 mm 6 mps 752 mmHg 77%
    11:00 +30°C° 0 mm 6 mps 752 mmHg 75%
    12:00 +30°C° 0 mm 6 mps 751 mmHg 74%
    13:00 +30°C° 0 mm 6 mps 750 mmHg 74%
    14:00 +30°C° 0 mm 6 mps 750 mmHg 73%
    15:00 +30°C° 0 mm 6 mps 750 mmHg 74%
    16:00 +29°C° 0 mm 6 mps 750 mmHg 75%
    17:00 +29°C° 0 mm 6 mps 749 mmHg 76%
    18:00 +29°C° 0 mm 5 mps 750 mmHg 79%
    19:00 +28°C° 0 mm 5 mps 750 mmHg 82%
    20:00 +28°C° 0 mm 5 mps 751 mmHg 84%
    21:00 +28°C° 0 mm 5 mps 751 mmHg 85%
    22:00 +28°C° 0 mm 5 mps 751 mmHg 86%
    23:00 +28°C° 0 mm 5 mps 751 mmHg 86%

    26 October, Saturday

    Time Temperature Precipitation Wind Pressure Humidity
    00:00 +28°C° 0 mm 5 mps 751 mmHg 86%
    01:00 +28°C° 0 mm 5 mps 750 mmHg 85%
    02:00 +28°C° 0 mm 5 mps 750 mmHg 84%
    03:00 +27°C° 0.1 mm 5 mps 750 mmHg 85%
    04:00 +27°C° 0.1 mm 5 mps 750 mmHg 86%
    05:00 +27°C° 0.1 mm 5 mps 750 mmHg 86%
    06:00 +28°C° 0 mm 5 mps 750 mmHg 84%
    07:00 +28°C° 0 mm 5 mps 751 mmHg 81%
    08:00 +29°C° 0 mm 5 mps 751 mmHg 79%
    09:00 +29°C° 0.1 mm 4 mps 751 mmHg 77%
    10:00 +30°C° 0.1 mm 4 mps 752 mmHg 75%
    11:00 +30°C° 0.1 mm 4 mps 752 mmHg 74%
    12:00 +30°C° 0.1 mm 4 mps 751 mmHg 74%
    13:00 +30°C° 0.1 mm 4 mps 750 mmHg 74%
    14:00 +30°C° 0.1 mm 4 mps 750 mmHg 75%
    15:00 +30°C° 0.1 mm 5 mps 749 mmHg 77%
    16:00 +29°C° 0.1 mm 5 mps 749 mmHg 79%
    17:00 +29°C° 0.1 mm 5 mps 749 mmHg 81%
    18:00 +29°C° 0.1 mm 5 mps 750 mmHg 81%
    19:00 +28°C° 0.1 mm 6 mps 750 mmHg 81%
    20:00 +28°C° 0.1 mm 6 mps 751 mmHg 80%
    21:00 +28°C° 0 mm 6 mps 751 mmHg 81%
    22:00 +28°C° 0 mm 6 mps 751 mmHg 81%
    23:00 +28°C° 0 mm 5 mps 751 mmHg 82%

    27 October, Sunday

    Time Temperature Precipitation Wind Pressure Humidity
    00:00 +28°C° 0.1 mm 5 mps 751 mmHg 82%
    01:00 +28°C° 0.1 mm 5 mps 750 mmHg 83%
    02:00 +28°C° 0.1 mm 5 mps 750 mmHg 83%
    03:00 +28°C° 0.1 mm 5 mps 750 mmHg 84%
    04:00 +28°C° 0.1 mm 5 mps 750 mmHg 85%
    05:00 +28°C° 0.1 mm 4 mps 750 mmHg 86%
    06:00 +28°C° 0.1 mm 5 mps 750 mmHg 85%
    07:00 +28°C° 0.1 mm 5 mps 751 mmHg 84%
    08:00 +29°C° 0.1 mm 5 mps 751 mmHg 83%
    09:00 +29°C° 0.1 mm 5 mps 751 mmHg 80%
    10:00 +30°C° 0.1 mm 5 mps 752 mmHg 78%
    11:00 +30°C° 0.1 mm 6 mps 752 mmHg 75%
    12:00 +30°C° 0.3 mm 6 mps 751 mmHg 75%
    13:00 +30°C° 0.3 mm 6 mps 750 mmHg 76%
    14:00 +30°C° 0.3 mm 6 mps 750 mmHg 76%
    15:00 +29°C° 0.1 mm 6 mps 750 mmHg 78%
    16:00 +29°C° 0.1 mm 6 mps 750 mmHg 81%
    17:00 +29°C° 0.1 mm 6 mps 749 mmHg 83%
    18:00 +29°C° 0 mm 6 mps 750 mmHg 81%
    19:00 +28°C° 0 mm 6 mps 750 mmHg 79%
    20:00 +28°C° 0 mm 6 mps 751 mmHg 78%
    21:00 +28°C° 0 mm 6 mps 750 mmHg 79%
    22:00 +28°C° 0 mm 6 mps 750 mmHg 80%
    23:00 +28°C° 0 mm 6 mps 750 mmHg 81%
    Show more